| time (UTC) | temp F | wind direction | speed MPH | gust MPH | rain 1hr in | rain 24hr in | rain mn in | humidity % | barometer mb |
| 20260504042009 | 44 | 300 | 1.0 | 5.0 | 0.00 | 0.00 | 0.00 | 62 | 1010.8 |
| 20260504041520 | 44 | 315 | 1.0 | 5.0 | 0.00 | 0.00 | 0.00 | 61 | 1010.8 |
| 20260504041009 | 44 | 348 | 0.0 | 4.0 | 0.00 | 0.00 | 0.00 | 61 | 1010.7 |
| 20260504040512 | 44 | 360 | 1.0 | 5.0 | 0.00 | 0.00 | 0.00 | 61 | 1010.8 |
| 20260504040020 | 44 | 345 | 1.0 | 5.0 | 0.00 | 0.00 | 0.00 | 62 | 1010.7 |
| 20260504035513 | 44 | 344 | 1.0 | 4.0 | 0.00 | 0.00 | 0.00 | 62 | 1010.7 |
| 20260504035007 | 43 | 350 | 1.0 | 5.0 | 0.00 | 0.00 | 0.00 | 63 | 1010.7 |
| 20260504034538 | 43 | 315 | 1.0 | 5.0 | 0.00 | 0.00 | 0.00 | 65 | 1010.6 |
| 20260504034011 | 43 | 5 | 2.0 | 5.0 | 0.00 | 0.00 | 0.00 | 65 | 1010.6 |
| 20260504033513 | 42 | 13 | 1.0 | 4.0 | 0.00 | 0.00 | 0.00 | 66 | 1010.6 |
| 20260504033029 | 42 | 340 | 2.0 | 4.0 | 0.00 | 0.00 | 0.00 | 68 | 1010.6 |
| 20260504032510 | 41 | 5 | 1.0 | 3.0 | 0.00 | 0.00 | 0.00 | 69 | 1010.6 |
| 20260504032010 | 41 | 336 | 1.0 | 3.0 | 0.00 | 0.00 | 0.00 | 72 | 1010.6 |
| 20260504031522 | 41 | 336 | 0.0 | 2.0 | 0.00 | 0.00 | 0.00 | 71 | 1010.5 |
| 20260504031007 | 41 | 329 | 0.0 | 2.0 | 0.00 | 0.00 | 0.00 | 70 | 1010.6 |
| 20260504030504 | 42 | 336 | 0.0 | 2.0 | 0.00 | 0.00 | 0.00 | 68 | 1010.5 |
| 20260504030003 | 42 | 336 | 0.0 | 1.0 | 0.00 | 0.00 | 0.00 | 67 | 1010.6 |
| 20260504025503 | 43 | 340 | 0.0 | 2.0 | 0.00 | 0.00 | 0.00 | 66 | 1010.6 |
| 20260504025003 | 43 | 337 | 0.0 | 2.0 | 0.00 | 0.00 | 0.00 | 66 | 1010.7 |
| 20260504024510 | 43 | 344 | 0.0 | 3.0 | 0.00 | 0.00 | 0.00 | 64 | 1010.7 |
| 20260504024002 | 44 | 336 | 0.0 | 4.0 | 0.00 | 0.00 | 0.00 | 64 | 1010.7 |
| 20260504023507 | 44 | 335 | 1.0 | 4.0 | 0.00 | 0.00 | 0.00 | 63 | 1010.7 |
| 20260504023009 | 44 | 331 | 0.0 | 4.0 | 0.00 | 0.00 | 0.00 | 64 | 1010.7 |
| 20260504022504 | 45 | 346 | 0.0 | 3.0 | 0.00 | 0.00 | 0.00 | 62 | 1010.7 |
| 20260504022004 | 45 | 11 | 1.0 | 4.0 | 0.00 | 0.00 | 0.00 | 60 | 1010.7 |
| 20260504021522 | 45 | 330 | 1.0 | 4.0 | 0.00 | 0.00 | 0.00 | 61 | 1010.7 |
| 20260504021004 | 45 | 355 | 1.0 | 4.0 | 0.00 | 0.00 | 0.00 | 61 | 1010.6 |
| 20260504020506 | 45 | 355 | 1.0 | 5.0 | 0.00 | 0.00 | 0.00 | 60 | 1010.7 |
| 20260504020013 | 45 | 333 | 1.0 | 5.0 | 0.00 | 0.00 | 0.00 | 60 | 1010.7 |
| 20260504015503 | 45 | 341 | 1.0 | 4.0 | 0.00 | 0.00 | 0.00 | 60 | 1010.7 |
| 20260504015003 | 45 | 350 | 1.0 | 4.0 | 0.00 | 0.00 | 0.00 | 61 | 1010.6 |
| 20260504014505 | 45 | 350 | 0.0 | 4.0 | 0.00 | 0.00 | 0.00 | 60 | 1010.6 |
| 20260504014003 | 46 | 355 | 0.0 | 2.0 | 0.00 | 0.00 | 0.00 | 60 | 1010.6 |
| 20260504013503 | 46 | 5 | 0.0 | 3.0 | 0.00 | 0.00 | 0.00 | 59 | 1010.6 |
| 20260504013010 | 46 | 355 | 0.0 | 3.0 | 0.00 | 0.00 | 0.00 | 59 | 1010.5 |
| 20260504012504 | 46 | 352 | 0.0 | 0.0 | 0.00 | 0.00 | 0.00 | 58 | 1010.5 |
| 20260504012008 | 46 | 338 | 0.0 | 3.0 | 0.00 | 0.00 | 0.00 | 57 | 1010.4 |
| 20260504011513 | 47 | 333 | 0.0 | 3.0 | 0.00 | 0.00 | 0.00 | 57 | 1010.4 |
| 20260504011008 | 47 | 355 | 1.0 | 4.0 | 0.00 | 0.00 | 0.00 | 57 | 1010.4 |
| 20260504010504 | 47 | 322 | 1.0 | 4.0 | 0.00 | 0.00 | 0.00 | 57 | 1010.4 |
| 20260504010009 | 47 | 17 | 1.0 | 4.0 | 0.00 | 0.00 | 0.00 | 57 | 1010.4 |
| 20260504005503 | 47 | 340 | 1.0 | 3.0 | 0.00 | 0.00 | 0.00 | 55 | 1010.4 |
| 20260504005003 | 47 | 329 | 0.0 | 3.0 | 0.00 | 0.00 | 0.00 | 57 | 1010.4 |
| 20260504004513 | 48 | 326 | 0.0 | 3.0 | 0.00 | 0.00 | 0.00 | 55 | 1010.3 |
| 20260504004005 | 49 | 336 | 0.0 | 3.0 | 0.00 | 0.00 | 0.00 | 53 | 1010.3 |
| 20260504003503 | 50 | 336 | 0.0 | 3.0 | 0.00 | 0.00 | 0.00 | 51 | 1010.2 |
| 20260504003007 | 50 | 336 | 1.0 | 4.0 | 0.00 | 0.00 | 0.00 | 48 | 1010.2 |
| 20260504002504 | 51 | 333 | 1.0 | 8.0 | 0.00 | 0.00 | 0.00 | 48 | 1010.1 |
| 20260504002004 | 51 | 321 | 1.0 | 8.0 | 0.00 | 0.00 | 0.00 | 48 | 1010.1 |
| 20260504001512 | 52 | 331 | 0.0 | 5.0 | 0.00 | 0.00 | 0.00 | 47 | 1010.1 |
| 20260504001005 | 53 | 355 | 1.0 | 8.0 | 0.00 | 0.00 | 0.00 | 44 | 1010.0 |
| 20260504000508 | 53 | 360 | 2.0 | 8.0 | 0.00 | 0.00 | 0.00 | 43 | 1009.9 |
| 20260504000008 | 53 | 334 | 2.0 | 7.0 | 0.00 | 0.00 | 0.00 | 42 | 1010.0 |
| 20260503235507 | 54 | 37 | 2.0 | 5.0 | 0.00 | 0.00 | 0.00 | 42 | 1009.9 |
| 20260503235004 | 54 | 315 | 1.0 | 10.0 | 0.00 | 0.00 | 0.00 | 43 | 1009.9 |
| 20260503234508 | 54 | 10 | 2.0 | 10.0 | 0.00 | 0.00 | 0.00 | 41 | 1009.9 |
| 20260503234006 | 54 | 5 | 4.0 | 10.0 | 0.00 | 0.00 | 0.00 | 41 | 1009.9 |
| 20260503233507 | 54 | 32 | 3.0 | 10.0 | 0.00 | 0.00 | 0.00 | 41 | 1010.0 |
| 20260503233007 | 55 | 5 | 1.0 | 10.0 | 0.00 | 0.00 | 0.00 | 42 | 1009.9 |
| 20260503232507 | 55 | 333 | 4.0 | 11.0 | 0.00 | 0.00 | 0.00 | 41 | 1009.9 |
| 20260503232004 | 55 | 33 | 2.0 | 11.0 | 0.00 | 0.00 | 0.00 | 40 | 1009.9 |
| 20260503231508 | 55 | 20 | 4.0 | 10.0 | 0.00 | 0.00 | 0.00 | 40 | 1009.8 |
| 20260503231005 | 55 | 32 | 1.0 | 10.0 | 0.00 | 0.00 | 0.00 | 40 | 1009.8 |
| 20260503230505 | 55 | 319 | 3.0 | 10.0 | 0.00 | 0.00 | 0.00 | 40 | 1009.9 |
| 20260503230011 | 55 | 360 | 5.0 | 15.0 | 0.00 | 0.00 | 0.00 | 40 | 1009.9 |
| 20260503225505 | 55 | 298 | 6.0 | 15.0 | 0.00 | 0.00 | 0.00 | 41 | 1009.9 |
| 20260503225006 | 56 | 321 | 2.0 | 14.0 | 0.00 | 0.00 | 0.00 | 41 | 1009.9 |
| 20260503224511 | 56 | 330 | 4.0 | 14.0 | 0.00 | 0.00 | 0.00 | 41 | 1009.9 |
| 20260503224009 | 55 | 78 | 3.0 | 11.0 | 0.00 | 0.00 | 0.00 | 40 | 1009.8 |
| 20260503223511 | 55 | 332 | 3.0 | 11.0 | 0.00 | 0.00 | 0.00 | 41 | 1009.9 |
| 20260503223010 | 55 | 42 | 5.0 | 10.0 | 0.00 | 0.00 | 0.00 | 40 | 1009.8 |
| 20260503222508 | 55 | 34 | 2.0 | 10.0 | 0.00 | 0.00 | 0.00 | 41 | 1009.8 |
| 20260503222010 | 56 | 319 | 5.0 | 10.0 | 0.00 | 0.00 | 0.00 | 39 | 1009.8 |
| 20260503221522 | 56 | 46 | 3.0 | 10.0 | 0.00 | 0.00 | 0.00 | 41 | 1009.9 |
| 20260503221005 | 56 | 30 | 1.0 | 10.0 | 0.00 | 0.00 | 0.00 | 41 | 1009.9 |
| 20260503220510 | 56 | 331 | 2.0 | 12.0 | 0.00 | 0.00 | 0.00 | 42 | 1010.0 |
| 20260503220012 | 56 | 24 | 5.0 | 12.0 | 0.00 | 0.00 | 0.00 | 39 | 1010.0 |
| 20260503215506 | 56 | 317 | 4.0 | 12.0 | 0.00 | 0.00 | 0.00 | 39 | 1010.0 |
| 20260503215008 | 57 | 172 | 4.0 | 12.0 | 0.00 | 0.00 | 0.00 | 39 | 1009.9 |
| 20260503214514 | 58 | 360 | 4.0 | 12.0 | 0.00 | 0.00 | 0.00 | 38 | 1009.9 |
| 20260503214015 | 57 | 77 | 2.0 | 15.0 | 0.00 | 0.00 | 0.00 | 41 | 1009.9 |
| 20260503213509 | 57 | 36 | 5.0 | 15.0 | 0.00 | 0.00 | 0.00 | 39 | 1009.9 |
| 20260503213027 | 57 | 339 | 3.0 | 12.0 | 0.00 | 0.00 | 0.00 | 39 | 1009.8 |
| 20260503212510 | 57 | 76 | 2.0 | 12.0 | 0.00 | 0.00 | 0.00 | 39 | 1009.8 |
| 20260503212010 | 58 | 314 | 4.0 | 11.0 | 0.00 | 0.00 | 0.00 | 38 | 1009.8 |
| 20260503211520 | 58 | 17 | 1.0 | 11.0 | 0.00 | 0.00 | 0.00 | 41 | 1009.8 |
| 20260503211011 | 57 | 15 | 3.0 | 13.0 | 0.00 | 0.00 | 0.00 | 42 | 1009.8 |
| 20260503210505 | 56 | 34 | 4.0 | 13.0 | 0.00 | 0.00 | 0.00 | 37 | 1009.8 |
| 20260503210014 | 56 | 14 | 3.0 | 14.0 | 0.00 | 0.00 | 0.00 | 40 | 1009.8 |
| 20260503205507 | 57 | 9 | 4.0 | 14.0 | 0.00 | 0.00 | 0.00 | 37 | 1009.8 |
| 20260503205015 | 57 | 47 | 6.0 | 14.0 | 0.00 | 0.00 | 0.00 | 37 | 1009.9 |
| 20260503204523 | 57 | 326 | 5.0 | 14.0 | 0.00 | 0.00 | 0.00 | 37 | 1009.9 |
| 20260503204008 | 58 | 10 | 4.0 | 15.0 | 0.00 | 0.00 | 0.00 | 37 | 1009.9 |
| 20260503203506 | 58 | 97 | 3.0 | 15.0 | 0.00 | 0.00 | 0.00 | 39 | 1009.9 |
| 20260503203020 | 57 | 304 | 6.0 | 12.0 | 0.00 | 0.00 | 0.00 | 37 | 1009.9 |
| 20260503202514 | 58 | 27 | 5.0 | 11.0 | 0.00 | 0.00 | 0.00 | 36 | 1010.1 |
| 20260503202012 | 59 | 132 | 4.0 | 15.0 | 0.00 | 0.00 | 0.00 | 38 | 1010.2 |
| 20260503201528 | 59 | 60 | 4.0 | 17.0 | 0.00 | 0.00 | 0.00 | 39 | 1010.2 |
| 20260503201011 | 58 | 5 | 5.0 | 17.0 | 0.00 | 0.00 | 0.00 | 40 | 1010.1 |
| 20260503200507 | 58 | 45 | 2.0 | 12.0 | 0.00 | 0.00 | 0.00 | 41 | 1010.2 |
| 20260503200022 | 58 | 346 | 4.0 | 12.0 | 0.00 | 0.00 | 0.00 | 41 | 1010.2 |
| 20260503195508 | 57 | 24 | 2.0 | 12.0 | 0.00 | 0.00 | 0.00 | 40 | 1010.2 |
| 20260503195012 | 57 | 82 | 4.0 | 16.0 | 0.00 | 0.00 | 0.00 | 38 | 1010.2 |
| 20260503194527 | 57 | 355 | 5.0 | 16.0 | 0.00 | 0.00 | 0.00 | 38 | 1010.3 |
| 20260503194010 | 58 | 40 | 4.0 | 15.0 | 0.00 | 0.00 | 0.00 | 38 | 1010.4 |
| 20260503193506 | 58 | 19 | 4.0 | 15.0 | 0.00 | 0.00 | 0.00 | 37 | 1010.5 |
| 20260503193014 | 58 | 344 | 3.0 | 15.0 | 0.00 | 0.00 | 0.00 | 41 | 1010.6 |
| 20260503192506 | 58 | 114 | 2.0 | 12.0 | 0.00 | 0.00 | 0.00 | 44 | 1010.6 |
| 20260503192015 | 58 | 89 | 5.0 | 15.0 | 0.00 | 0.00 | 0.00 | 42 | 1010.8 |
| 20260503191521 | 57 | 284 | 6.0 | 15.0 | 0.00 | 0.00 | 0.00 | 39 | 1010.9 |
| 20260503191010 | 56 | 58 | 4.0 | 12.0 | 0.00 | 0.00 | 0.00 | 41 | 1010.8 |
| 20260503190507 | 56 | 342 | 3.0 | 12.0 | 0.00 | 0.00 | 0.00 | 39 | 1010.9 |
| 20260503190021 | 57 | 14 | 4.0 | 19.0 | 0.00 | 0.00 | 0.00 | 39 | 1010.9 |
| 20260503185506 | 57 | 57 | 7.0 | 19.0 | 0.00 | 0.00 | 0.00 | 41 | 1011.0 |
| 20260503185006 | 57 | 38 | 9.0 | 19.0 | 0.00 | 0.00 | 0.00 | 39 | 1011.0 |
| 20260503184522 | 56 | 102 | 3.0 | 14.0 | 0.00 | 0.00 | 0.00 | 44 | 1011.1 |
| 20260503184007 | 56 | 16 | 5.0 | 14.0 | 0.00 | 0.00 | 0.00 | 38 | 1011.0 |
| 20260503183517 | 57 | 18 | 3.0 | 10.0 | 0.00 | 0.00 | 0.00 | 42 | 1011.1 |
| 20260503183030 | 57 | 111 | 3.0 | 10.0 | 0.00 | 0.00 | 0.00 | 42 | 1011.2 |
| 20260503182509 | 56 | 98 | 3.0 | 17.0 | 0.00 | 0.00 | 0.00 | 42 | 1011.2 |
| 20260503182011 | 55 | 12 | 7.0 | 17.0 | 0.00 | 0.00 | 0.00 | 39 | 1011.2 |
| 20260503181528 | 55 | 352 | 1.0 | 12.0 | 0.00 | 0.00 | 0.00 | 42 | 1011.2 |
| 20260503181004 | 55 | 175 | 3.0 | 12.0 | 0.00 | 0.00 | 0.00 | 41 | 1011.2 |
| 20260503180504 | 55 | 34 | 4.0 | 17.0 | 0.00 | 0.00 | 0.00 | 42 | 1011.2 |
| 20260503180004 | 55 | 348 | 6.0 | 17.0 | 0.00 | 0.00 | 0.00 | 40 | 1011.3 |
| 20260503175504 | 55 | 9 | 4.0 | 16.0 | 0.00 | 0.00 | 0.00 | 40 | 1011.3 |
| 20260503175007 | 55 | 324 | 4.0 | 16.0 | 0.00 | 0.00 | 0.00 | 44 | 1011.3 |
| 20260503174507 | 55 | 50 | 5.0 | 16.0 | 0.00 | 0.00 | 0.00 | 44 | 1011.5 |
| 20260503174002 | 55 | 326 | 5.0 | 15.0 | 0.00 | 0.00 | 0.00 | 43 | 1011.5 |
| 20260503173502 | 54 | 40 | 3.0 | 14.0 | 0.00 | 0.00 | 0.00 | 42 | 1011.5 |
| 20260503173024 | 54 | 18 | 5.0 | 14.0 | 0.00 | 0.00 | 0.00 | 39 | 1011.5 |
| 20260503172502 | 55 | 5 | 3.0 | 12.0 | 0.00 | 0.00 | 0.00 | 41 | 1011.5 |
| 20260503172003 | 55 | 179 | 2.0 | 15.0 | 0.00 | 0.00 | 0.00 | 43 | 1011.5 |
| 20260503171512 | 55 | 20 | 4.0 | 15.0 | 0.00 | 0.00 | 0.00 | 42 | 1011.5 |
| 20260503171006 | 54 | 345 | 4.0 | 15.0 | 0.00 | 0.00 | 0.00 | 47 | 1011.5 |
| 20260503170503 | 54 | 10 | 3.0 | 21.0 | 0.00 | 0.00 | 0.00 | 43 | 1011.6 |
| 20260503151006 | 50 | 67 | 6.0 | 16.0 | 0.00 | 0.00 | 0.00 | 49 | 1012.7 |
| 20260503150512 | 49 | 97 | 1.0 | 19.0 | 0.00 | 0.00 | 0.00 | 55 | 1012.7 |
| 20260503131007 | 45 | 49 | 4.0 | 11.0 | 0.00 | 0.00 | 0.00 | 59 | 1013.2 |
| 20260503130509 | 45 | 19 | 3.0 | 10.0 | 0.00 | 0.00 | 0.00 | 61 | 1013.2 |
| 20260503110513 | 34 | 35 | 0.0 | 8.0 | 0.00 | 0.00 | 0.00 | 76 | 1012.6 |
| 20260503090505 | 36 | 123 | 2.0 | 10.0 | 0.00 | 0.01 | 0.00 | 71 | 1011.6 |
| 20260503081513 | 36 | 13 | 1.0 | 8.0 | 0.00 | 0.01 | 0.00 | 72 | 1011.5 |
| 20260503081007 | 36 | 122 | 0.0 | 1.0 | 0.00 | 0.01 | 0.00 | 72 | 1011.5 |
| 20260503080505 | 36 | 117 | 0.0 | 3.0 | 0.00 | 0.01 | 0.00 | 72 | 1011.4 |
| 20260503072506 | 36 | 113 | 0.0 | 4.0 | 0.00 | 0.01 | 0.00 | 72 | 1011.3 |
| 20260503072006 | 36 | 61 | 0.0 | 3.0 | 0.00 | 0.01 | 0.00 | 72 | 1011.3 |
| 20260503071505 | 36 | 123 | 0.0 | 3.0 | 0.00 | 0.01 | 0.00 | 72 | 1011.3 |
| 20260503071004 | 36 | 70 | 0.0 | 2.0 | 0.00 | 0.01 | 0.00 | 72 | 1011.3 |
| 20260503070504 | 36 | 35 | 0.0 | 3.0 | 0.00 | 0.01 | 0.00 | 73 | 1011.2 |
| 20260503055003 | 37 | 132 | 0.0 | 3.0 | 0.00 | 0.01 | 0.00 | 69 | 1011.3 |
| 20260503054513 | 37 | 67 | 1.0 | 2.0 | 0.00 | 0.01 | 0.00 | 70 | 1011.3 |
| 20260503054008 | 37 | 77 | 0.0 | 2.0 | 0.00 | 0.01 | 0.00 | 71 | 1011.2 |
| 20260503053509 | 37 | 76 | 0.0 | 2.0 | 0.00 | 0.02 | 0.00 | 73 | 1011.3 |
| 20260503053012 | 37 | 46 | 0.0 | 2.0 | 0.00 | 0.02 | 0.00 | 72 | 1011.3 |
| 20260503052505 | 37 | 96 | 0.0 | 1.0 | 0.00 | 0.02 | 0.00 | 73 | 1011.4 |
| 20260503052010 | 37 | 121 | 0.0 | 9.0 | 0.00 | 0.03 | 0.00 | 73 | 1011.3 |
| 20260503051512 | 37 | 146 | 1.0 | 9.0 | 0.00 | 0.03 | 0.00 | 71 | 1011.4 |
| 20260503051010 | 37 | 56 | 0.0 | 2.0 | 0.00 | 0.03 | 0.00 | 75 | 1011.5 |
| 20260503050505 | 37 | 34 | 0.0 | 2.0 | 0.00 | 0.03 | 0.00 | 79 | 1011.5 |
| 20260503050008 | 37 | 61 | 0.0 | 0.0 | 0.00 | 0.03 | 0.00 | 78 | 1011.5 |
| 20260503045503 | 37 | 61 | 0.0 | 0.0 | 0.00 | 0.03 | 0.00 | 78 | 1011.5 |
| 20260503045010 | 37 | 61 | 0.0 | 1.0 | 0.00 | 0.03 | 0.00 | 78 | 1011.5 |
| 20260503044522 | 37 | 61 | 0.0 | 1.0 | 0.00 | 0.03 | 0.00 | 77 | 1011.5 |
| 20260503044010 | 38 | 44 | 0.0 | 0.0 | 0.00 | 0.03 | 0.00 | 77 | 1011.5 |
| 20260503043507 | 38 | 44 | 0.0 | 0.0 | 0.00 | 0.03 | 0.00 | 77 | 1011.5 |
| 20260503043012 | 38 | 44 | 0.0 | 1.0 | 0.00 | 0.03 | 0.00 | 75 | 1011.5 |
| 20260503042509 | 38 | 44 | 0.0 | 1.0 | 0.00 | 0.03 | 0.00 | 76 | 1011.5 |